Regional Weather Roundup
Issued by NWS

Home | Current Version | Previous Version | Graphics & Text | Print | Product List | Glossary On
Versions: 1 2 3 4 5 6 7 8 9 10 11 12 13 14 15 16 17 18 19 20 21 22 23 24 25 26 27 28 29 30 31 32 33 34 35 36 37 38 39 40 41 42 43 44 45 46 47 48 49 50
000
ASUS43 KLOT 192110
RWRIL

ILLINOIS REGIONAL WEATHER ROUNDUP
NATIONAL WEATHER SERVICE CHICAGO/ROMEOVILLE IL
400 PM CDT SAT APR 19 2014

NOTE: "FAIR" INDICATES FEW OR NO CLOUDS BELOW 12,000 FEET WITH NO
SIGNIFICANT WEATHER AND/OR OBSTRUCTIONS TO VISIBILITY.

* THESE STATIONS ARE NOT UNDER NWS QUALITY CONTROL. THEY ALSO MAY NOT
  REPORT WEATHER SUCH AS PRECIPITATION OR FOG.

ILZ001-002-007-009-015-016-024-192200-
NORTHWEST ILLINOIS

CITY           SKY/WX    TMP DP  RH WIND       PRES   REMARKS
MOLINE         MOSUNNY   74  36  25 S14G23    30.17F
STERLING*      PTSUNNY   72  34  25 S8        30.20F
SAVANNA*       PTSUNNY   71  32  23 SE16G22   30.19F
$$

ILZ003-004-008-010-011-017-018-192200-
NORTH CENTRAL ILLINOIS

CITY           SKY/WX    TMP DP  RH WIND       PRES   REMARKS
ROCKFORD       PTSUNNY   68  34  28 SE14      30.23F
FREEPORT*      MOSUNNY   69  33  26 S10G21    30.24F
ROCHELLE*      MOSUNNY   69  33  26 SE15      30.23F
DE KALB*       MOSUNNY   67  34  29 SE16G22   30.24F
PERU*          MOSUNNY   71  34  25 SE14      30.21F
$$

ILZ005-006-012>014-019>023-192200-
NORTHEAST ILLINOIS

CITY           SKY/WX    TMP DP  RH WIND       PRES   REMARKS
CHICAGO-OHARE  PTSUNNY   65  36  34 SE14      30.25F
CHICAGO-MIDWAY PTSUNNY   63  39  41 E9        30.26F
AURORA         SUNNY     69  33  26 SE15      30.24F
LANSING*       MOSUNNY   67  35  30 SE6       30.26F
WAUKEGAN       SUNNY     50  36  58 E8        30.28F
DUPAGE AIRPORT SUNNY     69  33  26 S13       30.24F
KANKAKEE*      MOSUNNY   68  38  33 E9G20     30.26F
WHEELING       SUNNY     62  39  42 SE9       30.28F
MORRIS*        SUNNY     70  19  14 S10G16    30.24F
ROMEOVILLE*    SUNNY     68  33  27 S14       30.24F
NORTHERLY ISL    N/A     51  38  60 N7          N/A
$$

LMZ740>746-192200-
SOUTHERN LAKE MICHIGAN

STATION/POSITION SKY/WX   TEMP    WIND        PRES    VSBY  WAVE
                          AIR SEA DIR/SP/G                  HT/PER
                          (F)     (DEG/KT/KT) (MB)    (MI)  (FT/S)
WAUKEGAN HARBOR            41      60/  2/  3 1027.1F
HARRISON CRIB              44      10/  3/  4   N/A
BURNHAM HARBOR             51      20/  6/  7   N/A
CALUMET HARBOR             49      10/  5/ 10 1025.9F
MICHIGAN CITY              62      70/ 10/ 15   N/A
$$

ILZ025>027-034>036-040-047-049-050-058-095>099-192200-
WEST-CENTRAL ILLINOIS

CITY           SKY/WX    TMP DP  RH WIND       PRES   REMARKS
QUINCY         PTSUNNY   74  41  30 S7        30.17F
GALESBURG*     MOSUNNY   72  38  29 S8G16     30.19F
MACOMB*        PTSUNNY   74  36  25 S7        30.20F
JACKSONVILLE*  MOSUNNY   74  37  26 SE9G16    30.21S
PITTSFIELD*    MOSUNNY   76  35  23 SE13      30.19F
$$

ILZ028>032-037-038-041>044-048-051>054-059>061-192200-
CENTRAL ILLINOIS

CITY           SKY/WX    TMP DP  RH WIND       PRES   REMARKS
PONTIAC        SUNNY     73  32  21 S7G16     30.23F
BLOOMINGTON    MOSUNNY   71  32  23 SE6G17    30.24F
DECATUR        SUNNY     74  31  20 SE8       30.22F
PEORIA         SUNNY     73  34  23 SE10      30.21F
LACON*         SUNNY     71  33  24 S10G18    30.20F
LINCOLN*       SUNNY     74  32  21 SE6       30.21F
SPRINGFIELD    SUNNY     73  35  25 SE9       30.21F
TAYLORVILLE    SUNNY     70  37  30 SE7       30.21F
$$

ILZ033-039-045-046-055>057-062-063-192200-
EAST-CENTRAL ILLINOIS

CITY           SKY/WX    TMP DP  RH WIND       PRES   REMARKS
CHAMPAIGN      MOSUNNY   73  33  23 E10       30.23F
RANTOUL*       SUNNY     73  31  21 E6        30.24F
MATTOON        SUNNY     70  38  31 S7        30.22F
PARIS*         SUNNY     71  37  28 NE6       30.24F
$$

ILZ079-100>102-192200-
SOUTHWEST ILLINOIS

CITY           SKY/WX    TMP DP  RH WIND       PRES   REMARKS
ALTON          SUNNY     73  37  27 SE9       30.21F
BELLEVILLE     SUNNY     74  44  34 SE5       30.20F
CAHOKIA*       SUNNY     75  43  31 E5        30.20F
SPARTA*        SUNNY     72  43  35 E6        30.21S
$$

ILZ064>066-069>071-074>076-080>082-084>086-088>090-092>094-192200-
SOUTH-CENTRAL ILLINOIS

CITY           SKY/WX    TMP DP  RH WIND       PRES   REMARKS
CARBONDALE     SUNNY     74  43  32 SE5       30.18F
CAIRO*         SUNNY     80  40  24 NE7       30.17F
MARION         SUNNY     75  41  29 SE12      30.19F
MT. VERNON     SUNNY     75  43  31 NE8       30.21F
CENTRALIA*       N/A     73  36  26 CALM      30.20F
SALEM*         SUNNY     73  44  34 SE3       30.21F
METROPOLIS*    SUNNY     76  32  20 N3        30.16F
$$

ILZ067-068-072-073-078-083-087-091-192200-
SOUTHEAST ILLINOIS

CITY           SKY/WX    TMP DP  RH WIND       PRES   REMARKS
FAIRFIELD*     SUNNY     73  43  33 NE5       30.21F
HARRISBURG*    SUNNY     74  40  29 E8        30.20F
ROBINSON*      SUNNY     74  42  31 NE6       30.22F
CARMI*         SUNNY     75  43  32 NE6       30.20F
$$

ABBREVIATIONS USED IN REMARKS
   TC - TEMPERATURE IN CELSIUS
  WCI - WIND CHILL INDEX
   HX - HEAT INDEX
  VSB - VISIBILITY
$$




USA.gov is the U.S. government's official web portal to all federal, state and local government web resources and services.